{"data":{"norad_id":63466,"intl_designator":"2025-070G","name":"STARLINK-33654","alt_names":[],"object_type":"PAYLOAD","status":"ACTIVE","operator":null,"country":"US","launch_date":"2025-04-06","launch_site_code":"AFETR","launch_vehicle":null,"mission":null,"orbit_class":"UNKNOWN","rcs_meters":null,"size_class":null,"mass_kg":null,"dimensions":null,"purposes":["comms"],"wikipedia_slug":null,"has_3d_model":false,"image_url":null,"decayed_at":null,"tle_current":{"epoch":"2026-05-24T20:20:05.539776Z","epoch_age_seconds":78496,"freshness":"FRESH","line1":"1 63466U 25070G   26144.84728634  .00014002  00000+0  51701-3 0  9991","line2":"2 63466  43.0000 189.7168 0001736 275.3595  84.7059 15.27602629 64628","mean_motion":15.27602629,"eccentricity":0.0001736,"inclination_deg":43,"raan_deg":189.7168,"arg_perigee_deg":275.3595,"mean_anomaly_deg":84.7059,"bstar":0.00051701,"rev_number":6462,"period_min":94.265352301904,"perigee_km":481.79024736598,"apogee_km":484.17242765276,"semimajor_km":6861.1183375094,"source":"CELESTRAK","updated_at":"2026-05-25T13:38:20.005631Z"}}}